{"data":{"norad_id":53370,"epoch":"2026-05-25T04:56:53.507904Z","epoch_age_seconds":53654,"freshness":"FRESH","line1":"1 53370U 22096A   26145.20617486  .00004521  00000+0  18120-3 0  9995","line2":"2 53370  97.3461  49.8423 0002632  97.2979 262.8559 15.25524858211080","mean_motion":15.25524858,"eccentricity":0.0002632,"inclination_deg":97.3461,"raan_deg":49.8423,"arg_perigee_deg":97.2979,"mean_anomaly_deg":262.8559,"bstar":0.0001812,"rev_number":21108,"period_min":94.393742091353,"perigee_km":487.40235235297,"apogee_km":491.01732372852,"semimajor_km":6867.3468380407,"source":"CELESTRAK","updated_at":"2026-05-25T13:37:58.153336Z"}}